Weather History for Ireland West Airport Knock, Ireland

Change the Weather History Date:

Tuesday, August 14, 2012

  Actual Average Record
Temperature  
Mean Temperature 61 °F -  
Max Temperature 68 °F - - ()
Min Temperature 54 °F - - ()
Degree Days  
Heating Degree Days 4    
Growing Degree Days 11 (Base 50)    
Moisture  
Dew Point 56 °F    
Average Humidity 81    
Maximum Humidity 100    
Minimum Humidity 59    
Precipitation  
Precipitation 0.31 in - - ()
Sea Level Pressure  
Sea Level Pressure 29.68 in    
Wind  
Wind Speed 8 mph ()    
Max Wind Speed 13 mph    
Max Gust Speed -    
Visibility 6.4 miles    
Events Rain    
T = Trace of Precipitation, MM = Missing Value Source: Averaged Metar Reports

Daily Weather History Graph

Daily Weather History Graph

Search for Another Location

Airport:

Trip Planner

Search our weather history database for the weather conditions in past years. The results will help you decide how hot, cold, wet, or windy it might be!

Date:

Astronomy

Aug. 14, 2012 Rise Set
Actual Time 6:12 AM IST 9:06 PM IST
Civil Twilight 5:31 AM IST 9:46 PM IST
Nautical Twilight 4:38 AM IST 10:39 PM IST
Astronomical Twilight 3:28 AM IST 11:47 PM IST
Moon 2:40 AM IST (8/14) 7:04 PM IST (8/14)
Length of Visible Light 16h 15m
Length of Day
14h 54m
Waning Crescent, 11% of the Moon is Illuminated
Aug 14
Waning Crescent
Aug 17
New
Aug 24
First Quarter
Aug 31
Full
Sep 8
Last Quarter

Hourly Weather History & Observations

Time (IST) Temp. Dew Point Humidity Pressure Visibility Wind Dir Wind Speed Gust Speed Precip Events Conditions
1:00 AM 56 °F 56 °F 98% 29.63 in - SE 6.7 mph - -  
7:00 AM 56 °F 55 °F 96% 29.64 in 16 mi South 8.9 mph - -   Overcast
7:00 AM 55.4 °F 55.4 °F 100% 29.62 in 6.2 mi South 9.2 mph - N/A   Mostly Cloudy
7:30 AM 55.4 °F 55.4 °F 100% 29.62 in 6.2 mi SSE 9.2 mph - N/A   Overcast
8:00 AM 57.2 °F 55.4 °F 94% 29.65 in 6.2 mi South 10.4 mph - N/A Rain Light Rain
8:30 AM 57.2 °F 57.2 °F 100% 29.65 in 6.2 mi South 8.1 mph - N/A   Overcast
9:00 AM 57.2 °F 57.2 °F 100% 29.65 in 6.2 mi South 9.2 mph - N/A   Mostly Cloudy
9:30 AM 59.0 °F 57.2 °F 94% 29.65 in 6.2 mi South 9.2 mph - N/A   Mostly Cloudy
10:00 AM 60.8 °F 57.2 °F 88% 29.68 in 6.2 mi South 10.4 mph - N/A   Mostly Cloudy
10:30 AM 60.8 °F 55.4 °F 82% 29.68 in 6.2 mi South 8.1 mph - N/A Rain Light Rain Showers
11:00 AM 57.2 °F 53.6 °F 88% 29.68 in 3.1 mi South 8.1 mph - N/A Rain Rain Showers
11:30 AM 59.0 °F 57.2 °F 94% 29.68 in 4.3 mi South 10.4 mph - N/A Rain Rain Showers
12:00 PM 59.0 °F 57.2 °F 94% 29.68 in 6.2 mi South 9.2 mph - N/A   Mostly Cloudy
12:30 PM 59.0 °F 55.4 °F 88% 29.68 in 6.2 mi SSW 6.9 mph - N/A   Scattered Clouds
1:00 PM 63 °F 56 °F 73% 29.70 in 25 mi South 8.9 mph - -   Partly Cloudy
1:00 PM 62.6 °F 57.2 °F 82% 29.68 in 6.2 mi South 9.2 mph - N/A   Scattered Clouds
1:30 PM 64.4 °F 55.4 °F 73% 29.71 in 6.2 mi South 12.7 mph - N/A   Mostly Cloudy
2:00 PM 66.2 °F 55.4 °F 68% 29.71 in 6.2 mi South 12.7 mph - N/A   Mostly Cloudy
2:30 PM 66.2 °F 55.4 °F 68% 29.71 in 6.2 mi SSW 8.1 mph - N/A   Mostly Cloudy
3:00 PM 66.2 °F 55.4 °F 68% 29.71 in 6.2 mi SSW 9.2 mph - N/A   Mostly Cloudy
3:30 PM 64.4 °F 55.4 °F 73% 29.71 in 6.2 mi South 8.1 mph - N/A   Scattered Clouds
4:00 PM 68.0 °F 55.4 °F 64% 29.71 in 6.2 mi South 5.8 mph - N/A   Scattered Clouds
4:30 PM 68.0 °F 55.4 °F 64% 29.68 in 6.2 mi South 8.1 mph - N/A   Scattered Clouds
5:00 PM 68.0 °F 55.4 °F 64% 29.68 in 6.2 mi SSE 5.8 mph - N/A   Scattered Clouds
5:30 PM 68.0 °F 55.4 °F 64% 29.68 in 6.2 mi SSE 9.2 mph - N/A   Mostly Cloudy
6:00 PM 66.2 °F 55.4 °F 68% 29.68 in 6.2 mi SSE 6.9 mph - N/A   Scattered Clouds
7:00 PM 65 °F 54 °F 59% 29.70 in 25 mi SSE 8.9 mph - -   Partly Cloudy
7:00 PM 66.2 °F 53.6 °F 64% 29.71 in 6.2 mi SSE 9.2 mph - N/A   Mostly Cloudy